Regional Weather Roundup
Issued by NWS Glasgow, MT

Home | Current Version | Previous Version | Text Only | Print | Product List | Glossary On
Versions: 1 2 3 4 5 6 7 8 9 10 11 12 13 14 15 16 17 18 19 20 21 22 23 24 25 26 27 28
000
ASUS45 KGGW 301515
RWRGGW
HOURLY WEATHER ROUNDUP FOR NORTHEAST MONTANA
NATIONAL WEATHER SERVICE GLASGOW MONTANA
900 AM MDT THU OCT 30 2014

NOTE: "FAIR" INDICATES FEW OR NO CLOUDS BELOW 12,000 FEET WITH NO
SIGNIFICANT WEATHER AND/OR OBSTRUCTIONS TO VISISBILITY.

NORTHEAST MONTANA


CITY           SKY/WX    TMP DP  RH WIND       PRES   REMARKS
GLASGOW        CLOUDY    35  30  82 E6        30.35R
PLENTYWOOD       N/A     32  32 100 N5          N/A
WOLF POINT     CLOUDY    37  31  78 N6        30.37R
JORDAN           N/A     33  33 100 E10       30.32R
WINNETT          N/A     34  29  82 E3          N/A
SIDNEY         CLOUDY    36  30  80 NW6       30.38R
GLENDIVE       CLOUDY    36  32  87 NE5       30.36R
MALTA            N/A     32  32 100 NE5         N/A
SCOBEY           N/A     32  26  79 N7        30.31R

FORT PECK REPORTS


CITY           SKY/WX    TMP DP  RH WIND       PRES   REMARKS
FORT PECK        N/A     34  32  92 NE5         N/A
THE PINES        N/A     35  32  88 N3          N/A

SOUTHEAST MONTANA


CITY           SKY/WX    TMP DP  RH WIND       PRES   REMARKS
BILLINGS       PTCLDY    37  26  64 SW16      30.31R
MILES CITY     SUNNY     32  29  88 NE9       30.32R
BAKER          CLOUDY    34  32  92 NE8       30.34R
LIVINGSTON     MOCLDY    37  28  70 CALM      30.30R

CENTRAL MONTANA


CITY           SKY/WX    TMP DP  RH WIND       PRES   REMARKS
HAVRE          FOG       29  28  96 E12       30.30R VSB 1/4
LEWISTOWN      CLEAR     38  29  70 S13       30.29R
GREAT FALLS    CLEAR     34  30  85 E3        30.25R
CUT BANK       CLEAR     32  28  85 CALM      30.24R
HELENA         MOCLDY    39  33  79 CALM      30.28R
BUTTE          CLOUDY    34  30  85 CALM      30.29R
BOZEMAN        CLOUDY    34  30  85 CALM      30.30R

WESTERN MONTANA


CITY           SKY/WX    TMP DP  RH WIND       PRES   REMARKS
MISSOULA       CLOUDY    37  37 100 CALM      30.26S FOG
KALISPELL      NOT AVBL

NORTH DAKOTA


CITY           SKY/WX    TMP DP  RH WIND       PRES   REMARKS
WILLISTON      CLOUDY    36  31  82 N8        30.35R
DICKINSON      CLOUDY    36  33  89 N10       30.30R FOG
MINOT          CLOUDY    33  29  85 NW12      30.34R
BISMARCK       SUNNY     34  29  82 N7        30.32R

SOUTHERN SASKATCHEWAN


CITY           SKY/WX    TMP DP  RH WIND       PRES   REMARKS
REGINA         CLOUDY    30  30 100 NE9       30.41R FOG
MOOSE JAW      CLOUDY    32  28  86 NE6       30.41R
ESTEVAN        CLOUDY    34  30  86 N10       30.37R
SWIFT CURRENT  CLOUDY    30  28  93 SE10      30.34R FOG




USA.gov is the U.S. government's official web portal to all federal, state and local government web resources and services.